Lid_Strength_Index
14 15 15 16 16 16 16 16 16 16 15 15 14 14 14 14 14 14 13 13 13 12 12 12 12 11 12 12 10 11 11 11 12 12 10 10 10 10 9 9 8 8 7
15 16 16 16 17 17 17 17 16 16 15 15 14 14 14 14 14 14 14 14 13 13 13 13 13 12 13 12 12 12 12 12 13 14 12 12 12 11 11 11 9 8 9
16 16 17 17 17 17 17 17 16 16 16 15 14 14 14 14 14 14 14 14 13 13 13 13 13 14 14 13 13 14 13 13 13 13 14 12 12 12 12 12 12 12 10
16 17 17 17 17 17 17 16 16 15 15 15 14 14 14 14 14 14 14 14 14 13 13 13 13 14 14 14 13 13 13 13 13 13 14 14 13 13 13 15 15 13 13
16 17 17 16 16 16 16 16 15 15 15 15 15 14 14 13 13 14 14 14 14 14 14 14 13 14 13 13 13 14 14 14 14 14 15 15 15 15 16 15 16 15 14
16 16 16 16 15 15 15 15 15 15 15 15 15 14 14 13 12 12 14 14 14 15 15 15 14 15 14 13 13 13 13 15 15 16 16 16 16 16 16 17 17 17 18
15 16 16 15 16 15 15 15 15 15 15 15 15 14 14 14 12 13 14 15 15 16 16 15 15 15 15 15 14 14 14 14 14 15 17 17 17 17 17 18 18 18 18
15 16 16 15 15 15 15 15 15 15 15 15 15 15 15 14 13 13 15 15 16 16 16 16 16 17 16 15 16 16 16 16 16 15 16 16 16 16 16 17 17 18 18
16 16 15 15 15 16 16 16 16 16 16 15 15 15 15 15 14 14 15 16 16 16 16 16 17 17 15 15 17 17 18 17 15 15 15 15 15 16 16 18 21 21 22
16 16 15 15 15 16 16 16 16 15 15 15 15 15 16 17 15 14 15 16 17 17 17 16 16 16 15 15 17 18 19 18 18 19 19 18 18 18 17 19 20 23 23
16 16 17 17 17 16 16 16 16 16 16 16 16 16 16 17 17 15 16 17 17 17 17 18 17 15 15 16 16 19 18 17 20 21 21 21 20 20 20 20 20 21 23
17 18 18 18 17 17 17 17 17 17 17 17 17 17 17 17 17 17 17 16 16 17 18 18 17 16 17 17 18 17 17 20 22 24 24 24 23 22 21 21 20 20 19
19 19 19 18 17 17 17 18 18 17 18 18 19 19 20 19 19 18 17 17 17 17 17 17 18 18 19 20 20 19 21 23 24 26 25 24 23 22 21 21 20 20 20
20 20 19 19 19 18 18 18 18 19 19 20 20 20 20 20 20 19 18 17 17 17 19 21 20 21 21 21 23 23 23 23 24 24 24 23 22 23 23 22 23 22 22
20 19 19 19 18 18 19 19 19 19 19 20 21 21 21 22 20 18 17 17 18 18 26 26 26 25 26 25 25 24 24 24 25 24 24 25 24 23 23 22 22 23 24
20 19 19 19 19 20 20 21 18 18 17 17 17 19 19 18 17 17 16 16 16 17 30 32 29 27 26 26 26 26 25 25 24 24 25 25 25 25 25 24 23 24 25
19 20 21 20 20 21 21 22 23 21 20 19 19 19 19 18 17 17 17 17 18 23 35 35 32 29 28 27 27 27 26 24 24 25 25 25 25 26 26 26 26 25 26
20 20 20 21 21 22 22 23 23 24 24 24 22 21 20 19 19 18 17 21 31 30 36 37 36 34 32 30 28 27 27 26 26 26 26 27 28 28 28 28 27 27 27
22 23 22 22 23 23 23 24 24 25 26 29 31 26 25 22 20 19 18 30 35 35 37 37 34 33 32 30 29 28 29 28 28 28 29 29 29 30 30 28 28 27 27
23 23 24 25 25 26 26 26 26 27 28 30 31 32 35 33 36 35 35 37 39 35 34 34 32 33 32 31 30 31 31 30 30 31 31 30 30 30 29 29 29 29 28
26 26 26 28 29 30 30 31 31 33 33 35 33 32 22 29 28 34 36 35 34 33 33 32 30 31 31 32 32 33 33 30 30 30 31 31 31 31 30 29 29 29 28
29 30 32 32 33 34 35 35 36 37 38 36 33 35 22 32 34 32 32 31 31 32 30 30 29 30 29 31 31 32 32 30 30 30 31 31 31 31 30 30 30 29 28
31 32 34 37 36 36 38 40 40 39 37 36 35 34 36 34 33 32 31 30 30 29 29 31 29 28 28 29 28 29 29 29 29 30 32 31 31 31 31 31 30 29 29
33 32 33 36 39 39 38 37 36 35 35 35 36 35 33 32 32 31 30 29 28 28 28 28 28 29 27 28 29 29 29 28 28 29 32 30 30 31 30 30 30 29 27
36 36 36 36 37 36 37 36 35 36 35 34 33 33 32 31 30 29 28 27 27 27 27 27 27 28 29 29 29 28 28 25 26 26 29 30 30 30 30 30 29 28 26
37 37 37 40 39 39 38 35 34 34 33 32 32 31 30 29 28 27 26 27 27 26 27 26 26 28 28 28 29 28 28 25 26 26 28 29 30 29 29 28 26 23 23